Regional Weather Roundup
Issued by NWS Grand Forks, ND

Home | Current Version | Previous Version | Graphics & Text | Print | Product List | Glossary On
Versions: 1 2 3 4 5 6 7 8 9 10 11 12 13 14 15 16 17 18 19 20 21 22 23 24 25 26 27 28 29 30 31 32 33 34 35 36 37 38 39 40 41 42 43 44 45 46 47 48 49 50
323
ASUS43 KFGF 010010
RWRFGF
PRAIRIE TO PINES  WEATHER ROUNDUP
NATIONAL WEATHER SERVICE EASTERN NORTH DAKOTA/GRAND FORKS ND
700 PM CDT WED AUG 31 2016

 **SATELLITE DATA USED TO AUGMENT SKY COVER AT AUTOMATED STATIONS**
 *****  WEATHER ACROSS EASTERN NORTH DAKOTA  *****

CITY           SKY/WX    TMP DP  RH WIND       PRES   REMARKS
GRAND FORKS    CLOUDY    72  56  57 N6        30.20R
6HR MIN TEMP:  72; 6HR MAX TEMP:  78;

GRAND FRKS AFB CLOUDY    69  60  71 N5        30.21S
GRAND FRKS NWS   N/A     70 N/A N/A NE6         N/A
DEVILS LAKE    CLOUDY    71  55  56 E8        30.21F
6HR MIN TEMP:  71; 6HR MAX TEMP:  77;

FARGO          SUNNY     73  57  57 NE8       30.19S
WAHPETON ARPT  CLEAR     77  50  38 NE6       30.18S
$$

 ***** WEATHER ACROSS CENTRAL AND WESTERN NORTH DAKOTA  *****

CITY           SKY/WX    TMP DP  RH WIND       PRES   REMARKS
BISMARCK       MOSUNNY   75  60  59 E15G24    30.14R
6HR MIN TEMP:  75; 6HR MAX TEMP:  86;

MINOT          SUNNY     76  56  49 SE18      30.10F
6HR MIN TEMP:  74; 6HR MAX TEMP:  84;

JAMESTOWN      MOSUNNY   73  59  61 E7        30.18S
6HR MIN TEMP:  73; 6HR MAX TEMP:  80;

MINOT AFB      SUNNY     77  55  46 SE18      30.08F
GARRISON         N/A     77  62  59 E22G30    30.12R
WILLISTON      SUNNY     94  45  18 S9        29.96S HX  90
6HR MIN TEMP:  85; 6HR MAX TEMP:  96;

DICKINSON      SUNNY     86  46  24 S20G29    30.05F
6HR MIN TEMP:  85; 6HR MAX TEMP:  90;

HETTINGER      SUNNY     85  52  32 S17G26    30.10S
6HR MIN TEMP:  85; 6HR MAX TEMP:  90;

$$

 *****  OTHER AIRPORT OBSERVATIONS IN OUR AREA  *****

CITY           SKY/WX    TMP DP  RH WIND       PRES   REMARKS
WALHALLA       NOT AVBL
GRAFTON AIRPOR FAIR      70  57  64 CALM      30.23S
VALLEY CITY AR FAIR      72  57  60 E7        30.21F
CANDO          NOT AVBL
CAVALIER APRT  FAIR      68  54  60 NE5       30.22S
GWINNER        FAIR      75  59  57 NE6       30.19S
SHEYENNE NWR     N/A     77  57  50 E6        29.95S
ROLLA          FAIR      66  54  63 SE8       30.21S
 ***** THE ABOVE OBSERVATIONS ARE NON NWS ARE NOT QUALITY
       CONTROLLED AND MAY MIS-REPORT RAIN FOR SNOW...
$$

  *****  WEATHER ACROSS NORTHERN MINNESOTA  *****

CITY           SKY/WX    TMP DP  RH WIND       PRES   REMARKS
FLAG ISLAND    PTCLDY    66  52  59 NE3       30.23S
WARROAD        CLEAR     66  55  68 E6        30.25S
ROSEAU         CLEAR     70  57  64 E6        30.24S
HALLOCK        SUNNY     72  54  53 NE3       30.22S
THF RVR FALLS  SUNNY     68  55  63 NE6       30.23S
6HR MIN TEMP:  68; 6HR MAX TEMP:  73;

BAUDETTE       CLEAR     66  54  65 N8        30.23S
6HR MIN TEMP:  66; 6HR MAX TEMP:  71;

WASKISH        PTCLDY    68  54  60 CALM      30.22S
CROOKSTON      SUNNY     72  55  56 NE3       30.21S
STEPHEN NDAWN    N/A     68  55  64 NE3         N/A
GREENBUSH NDAW   N/A     70  54  56 NE7         N/A
$$
  *****  WEATHER ACROSS CENTRAL AND WEST MINNESOTA  *****

CITY           SKY/WX    TMP DP  RH WIND       PRES   REMARKS
FOSSTON        CLEAR     70  61  73 NE5       30.22S
BEMIDJI        CLEAR     67  54  62 N5        30.22S
PARK RAPIDS    CLEAR     72  52  49 NE7       30.21R
6HR MIN TEMP:  72; 6HR MAX TEMP:  77;

ELBOW LAKE     FAIR      75  56  52 E5        30.19S
WADENA         CLEAR     72  55  56 CALM      30.20R
DETROIT LAKES  CLEAR     72  54  53 N5        30.22S
MOORHEAD       SUNNY     73  54  49 NE6       30.20S
FERGUS FALLS   SUNNY     73  55  53 NE5       30.19S
MORRIS MN      SUNNY     79  57  47 CALM      30.17S
STAPLES        CLEAR     72  52  49 NE5       30.20R
$$
  *****  WEATHER ELSEWHERE ACROSS MINNESOTA  *****

CITY           SKY/WX    TMP DP  RH WIND       PRES   REMARKS
DULUTH         MOCLDY    66  54  65 E6        30.19S
6HR MIN TEMP:  66; 6HR MAX TEMP:  75;

INTRNTL FALLS  CLEAR     69  51  52 N6        30.21S
6HR MIN TEMP:  67; 6HR MAX TEMP:  72;

ELY            MOCLDY    66  50  55 CALM      30.19F
CLOQUET        CLEAR     68  54  60 N3        30.19S
WHEATON        SUNNY     77  63  61 E3        30.18F
BRAINERD       CLEAR     72  54  53 N7        30.19S
6HR MIN TEMP:  72; 6HR MAX TEMP:  74;

HIBBING        PTCLDY    67  53  61 N6        30.20F
6HR MIN TEMP:  66; 6HR MAX TEMP:  71;

ALEXANDRIA     CLEAR     76  52  43 N7        30.20S
6HR MIN TEMP:  76; 6HR MAX TEMP:  78;

SAINT CLOUD    CLEAR     74  57  55 N3        30.17R
6HR MIN TEMP:  74; 6HR MAX TEMP:  78;

MINNEAPOLIS    PTCLDY    76  47  35 NE8       30.15S
6HR MIN TEMP:  76; 6HR MAX TEMP:  80;

$$

  *****  WEATHER ACROSS SOUTH DAKOTA  *****

CITY           SKY/WX    TMP DP  RH WIND       PRES   REMARKS
SIOUX FALLS    PTSUNNY   78  61  55 E7        30.16F
6HR MIN TEMP:  78; 6HR MAX TEMP:  84;

BROOKINGS      MOSUNNY   77  59  53 E9        30.18S
WATERTOWN      MOSUNNY   78  58  49 S6        30.18S
6HR MIN TEMP:  77; 6HR MAX TEMP:  82;

HURON          SUNNY     81  57  43 S7        30.14S
6HR MIN TEMP:  75; 6HR MAX TEMP:  83;

SISSETON         N/A     78  57  48 S3        30.16S
ABERDEEN       SUNNY     80  63  55 SE6       30.15S
6HR MIN TEMP:  74; 6HR MAX TEMP:  83;

MITCHELL       SUNNY     81  58  45 SE7       30.15S
PIERRE         SUNNY     83  63  50 SE12      30.11S
6HR MIN TEMP:  79; 6HR MAX TEMP:  87;

MOBRIDGE       SUNNY     82  60  47 E15       30.11R
RAPID CITY     SUNNY     79  55  43 S13       30.14S
6HR MIN TEMP:  79; 6HR MAX TEMP:  83;

$$

  *****  SOME WEATHER IN NEARBY STATES *****

CITY           SKY/WX    TMP DP  RH WIND       PRES   REMARKS
GLASGOW MT     SUNNY     96  43  16 SE15      29.84F HX  92
6HR MIN TEMP:  81; 6HR MAX TEMP:  98;

GREAT FALLS MT MOSUNNY   85  34  16 NW6       29.90S
6HR MIN TEMP:  85; 6HR MAX TEMP:  97;

CHEYENNE WY    SUNNY     72  47  40 SE13      30.27S
6HR MIN TEMP:  67; 6HR MAX TEMP:  75;

SCOTTSBLUFF NE SUNNY     78  58  49 SE16      30.18S
6HR MIN TEMP:  75; 6HR MAX TEMP:  82;

OMAHA NE       PTCLDY    78  60  53 NE7       30.13F
6HR MIN TEMP:  78; 6HR MAX TEMP:  83;

DES MOINES IA  MOCLDY    77  57  50 NE7       30.11F
6HR MIN TEMP:  77; 6HR MAX TEMP:  83;

DAVENPORT IA   CLEAR     72  59  63 N8        30.10R
6HR MIN TEMP:  72; 6HR MAX TEMP:  78;

CHICAGO IL     PTCLDY    72  54  53 NE10      30.08R
6HR MIN TEMP:  72; 6HR MAX TEMP:  76;

EAU CLAIRE WI  PTCLDY    73  54  51 N6        30.14S
6HR MIN TEMP:  73; 6HR MAX TEMP:  78;

LA CROSSE WI   CLEAR     75  54  47 N7        30.12S
6HR MIN TEMP:  75; 6HR MAX TEMP:  80;

$$

  *****  SOME NATIONAL WEATHER *****

CITY           SKY/WX    TMP DP  RH WIND       PRES   REMARKS
LA GUARDIA NY  CLOUDY    81  67  62 S13       29.88R
6HR MIN TEMP:  81; 6HR MAX TEMP:  90;

RALEIGH NC     MOCLDY    84  67  56 S7        29.92S
6HR MIN TEMP:  84; 6HR MAX TEMP:  95;

ATLANTA GA     PTCLDY    89  63  41 NE6       29.90S HX  90
6HR MIN TEMP:  88; 6HR MAX TEMP:  92;

NEW ORLEANS LA PTCLDY    92  73  53 NE9       29.80S HX 100
6HR MIN TEMP:  92; 6HR MAX TEMP:  96;

OKLAHOMA CITY  LGT RAIN  73  69  87 N8        30.04S
6HR MIN TEMP:  72; 6HR MAX TEMP:  92; 6HR PCP:  0.13;

ALBUQUERQUE NM MOSUNNY   81  53  37 SE15      30.18R
6HR MIN TEMP:  74; 6HR MAX TEMP:  83;

SALT LAKE CITY PTSUNNY   93  34  12 N9        29.97F
6HR MIN TEMP:  92; 6HR MAX TEMP:  97;

LOS ANGELES CA MOSUNNY   73  64  73 W16       29.83F
6HR MIN TEMP:  71; 6HR MC1F1C2F2C3F3C4F4C5F5C6F6C7F7C8F8C9F9CaFaCbFbCcFcCd!



USA.gov is the U.S. government's official web portal to all federal, state and local government web resources and services.